Volver al catálogo

FENGYUN 1C DEB

ActivoSSO
NORAD 30688·DEBRIS·🇨🇳 China

Lanzado May 10, 1999 desde Taiyuan Satellite Launch Center

Loading…

Próximos Pases (próximas 24 horas)

TLE

ActualizadoSource: Space-Track

Época: Sep 12, 2026, 23:39 UTC

1 30688U 99025AQW 26255.98602542  .00002354  00000-0  84528-3 0  9990
2 30688  98.6879 335.6866 0016077 222.4211 313.6369 14.34739398 11910

Sigue FENGYUN 1C DEB en tiempo real con AllMySat

Download on the App Store